Lemnos, Greece

7:13 PM EET on February 25, 2017 (GMT +0200)
Limnos

Weather History for LGLM - October, 2011

Change the Weather History Date:

Saturday, October 15, 2011

  Actual Average Record
Temperature  
Mean Temperature 54 °F -  
Max Temperature 55 °F 64 °F 77 °F (2012)
Min Temperature 51 °F 51 °F 46 °F (2007)
Degree Days  
Heating Degree Days 11    
Growing Degree Days 4 (Base 50)    
Moisture  
Dew Point 49 °F    
Average Humidity 78    
Maximum Humidity 94    
Minimum Humidity 68    
Precipitation  
Precipitation 0.08 in 0.07 in - ()
Sea Level Pressure  
Sea Level Pressure 30.14 in    
Wind  
Wind Speed 19 mph ()    
Max Wind Speed 28 mph    
Max Gust Speed 41 mph    
Visibility 6.2 miles    
Events Rain    
Averages and records for this station are not official NWS values.
T = Trace of Precipitation, MM = Missing Value Source: Averaged Metar Reports

Daily Weather History Graph

Daily Weather History Graph

Search for Another Location

Airport or City:

Trip Planner

Search our weather history database for the weather conditions in past years. The results will help you decide how hot, cold, wet, or windy it might be!

Date:

Astronomy

Oct. 15, 2011 Rise Set
Actual Time 7:28 AM EEST 6:40 PM EEST
Civil Twilight 7:01 AM EEST 7:07 PM EEST
Nautical Twilight 6:30 AM EEST 7:38 PM EEST
Astronomical Twilight 5:58 AM EEST 8:10 PM EEST
Moon 8:23 PM EEST (10/15) 10:35 AM EEST (10/15)
Length of Visible Light 12h 06m
Length of Day
11h 11m
Waning Gibbous, 91% of the Moon is Illuminated
Oct 15
Waning Gibbous
Oct 20
Last Quarter
Oct 26
New
Nov 2
First Quarter
Nov 10
Full

Hourly Weather History & Observations

Time (EEST) Temp. Dew Point Humidity Pressure Visibility Wind Dir Wind Speed Gust Speed Precip Events Conditions
12:20 AM 59.0 °F 51.8 °F 77% 30.15 in 6.2 mi ENE 13.8 mph 25.3 mph N/A   Mostly Cloudy
12:50 AM 59.0 °F 51.8 °F 77% 30.15 in 6.2 mi ENE 17.3 mph 28.8 mph N/A   Mostly Cloudy
1:50 AM 59.0 °F 51.8 °F 77% 30.15 in 6.2 mi NE 16.1 mph 27.6 mph N/A   Mostly Cloudy
2:50 AM 59.0 °F 51.8 °F 77% 30.15 in 6.2 mi NE 17.3 mph 28.8 mph N/A   Mostly Cloudy
3:00 AM 59 °F 52 °F 72% 30.17 in 6 mi NE 17.3 mph - -   Mostly Cloudy
3:50 AM 59.0 °F 51.8 °F 77% 30.15 in 6.2 mi NE 21.9 mph 33.4 mph N/A   Overcast
4:20 AM 59.0 °F 51.8 °F 77% 30.15 in 6.2 mi NE 21.9 mph 33.4 mph N/A   Overcast
4:50 AM 59.0 °F 51.8 °F 77% 30.12 in 6.2 mi NE 19.6 mph 31.1 mph N/A   Overcast
5:20 AM 59.0 °F 51.8 °F 77% 30.12 in 6.2 mi NE 25.3 mph 36.8 mph N/A   Overcast
5:50 AM 57.2 °F 51.8 °F 82% 30.15 in 6.2 mi NE 25.3 mph 36.8 mph N/A   Overcast
6:20 AM 57.2 °F 51.8 °F 82% 30.15 in 6.2 mi NE 27.6 mph 41.4 mph N/A   Overcast
6:50 AM 55.4 °F 51.8 °F 88% 30.12 in 6.2 mi NE 25.3 mph 36.8 mph N/A   Overcast
7:50 AM 53.6 °F 51.8 °F 94% 30.15 in 6.2 mi NE 23.0 mph 34.5 mph N/A   Overcast
8:20 AM 53.6 °F 51.8 °F 94% 30.15 in 6.2 mi NE 25.3 mph 36.8 mph N/A   Overcast
8:50 AM 55.4 °F 50.0 °F 82% 30.15 in 6.2 mi NE 25.3 mph 36.8 mph N/A   Overcast
9:00 AM 55 °F 50 °F 77% 30.17 in 6 mi NE 25.3 mph - -   Overcast
9:20 AM 55.4 °F 50.0 °F 82% 30.15 in 6.2 mi NE 25.3 mph 36.8 mph N/A   Overcast
9:50 AM 55.4 °F 50.0 °F 82% 30.15 in 6.2 mi NE 24.2 mph 35.7 mph N/A   Overcast
10:20 AM 55.4 °F 50.0 °F 82% 30.15 in 6.2 mi NE 24.2 mph 35.7 mph N/A   Overcast
10:50 AM 55.4 °F 50.0 °F 82% 30.18 in 6.2 mi NE 23.0 mph 35.7 mph N/A   Overcast
11:20 AM 55.4 °F 50.0 °F 82% 30.18 in 6.2 mi NE 24.2 mph 35.7 mph N/A Rain Light Rain
11:50 AM 55.4 °F 46.4 °F 72% 30.18 in 6.2 mi NE 24.2 mph 35.7 mph N/A   Overcast
12:20 PM 55.4 °F 46.4 °F 72% 30.18 in 6.2 mi NE 24.2 mph 35.7 mph N/A   Overcast
12:50 PM 55.4 °F 46.4 °F 72% 30.18 in 6.2 mi NE 20.7 mph 32.2 mph N/A   Overcast
1:20 PM 55.4 °F 46.4 °F 72% 30.18 in 6.2 mi NE 20.7 mph 32.2 mph N/A   Overcast
1:50 PM 55.4 °F 48.2 °F 77% 30.18 in 6.2 mi NE 24.2 mph 35.7 mph N/A   Overcast
2:20 PM 55.4 °F 48.2 °F 77% 30.18 in 6.2 mi NE 24.2 mph 35.7 mph N/A   Overcast
2:50 PM 55.4 °F 48.2 °F 77% 30.15 in 6.2 mi NE 20.7 mph 32.2 mph N/A   Overcast
3:00 PM 55 °F 47 °F 68% 30.17 in 6 mi NE 20.7 mph - -   Partly Cloudy
3:20 PM 55.4 °F 48.2 °F 77% 30.15 in 6.2 mi NE 20.7 mph 32.2 mph N/A   Overcast
3:50 PM 55.4 °F 46.4 °F 72% 30.15 in 6.2 mi NE 23.0 mph 35.7 mph N/A   Overcast
4:20 PM 55.4 °F 46.4 °F 72% 30.15 in 6.2 mi NE 23.0 mph 35.7 mph N/A   Overcast
4:50 PM 55.4 °F 46.4 °F 72% 30.12 in 6.2 mi NE 19.6 mph 31.1 mph N/A   Overcast
5:20 PM 55.4 °F 46.4 °F 72% 30.12 in 6.2 mi NE 19.6 mph 31.1 mph N/A   Overcast
5:50 PM 55.4 °F 46.4 °F 72% 30.12 in 6.2 mi ENE 18.4 mph 29.9 mph N/A   Overcast
6:20 PM 55.4 °F 46.4 °F 72% 30.12 in 6.2 mi ENE 18.4 mph 29.9 mph N/A   Overcast
6:50 PM 55.4 °F 48.2 °F 77% 30.12 in 6.2 mi NE 16.1 mph 27.6 mph N/A   Overcast
7:20 PM 55.4 °F 48.2 °F 77% 30.12 in 6.2 mi NE 16.1 mph 27.6 mph N/A Rain Light Rain
7:50 PM 53.6 °F 48.2 °F 82% 30.12 in 6.2 mi NE 16.1 mph 27.6 mph N/A Rain Light Rain
8:20 PM 53.6 °F 48.2 °F 82% 30.12 in 6.2 mi NE 16.1 mph 27.6 mph N/A Rain Light Rain
8:50 PM 53.6 °F 48.2 °F 82% 30.12 in 6.2 mi ENE 16.1 mph 27.6 mph N/A Rain Light Rain
9:00 PM 54 °F 48 °F 74% 30.13 in 6 mi ENE 16.1 mph - - Rain Light Rain
9:20 PM 53.6 °F 48.2 °F 82% 30.12 in 6.2 mi ENE 16.1 mph 27.6 mph N/A Rain Light Rain
9:50 PM 53.6 °F 48.2 °F 82% 30.12 in 6.2 mi NE 17.3 mph 28.8 mph N/A Rain Light Rain
10:20 PM 53.6 °F 48.2 °F 82% 30.12 in 6.2 mi NE 17.3 mph 28.8 mph N/A Rain Light Rain
10:50 PM 53.6 °F 48.2 °F 82% 30.12 in 6.2 mi NE 13.8 mph 25.3 mph N/A Rain Light Rain
11:20 PM 53.6 °F 48.2 °F 82% 30.12 in 6.2 mi NE 18.4 mph 29.9 mph N/A Rain Light Rain
11:50 PM 51.8 °F 48.2 °F 88% 30.12 in 6.2 mi NE 17.3 mph 28.8 mph N/A Rain Light Rain